USA 271

Last updated on Sat Sep 19 2026 00:03:01 GMT+0000 (Coordinated Universal Time)

1 41745U 16052B 26261.07442822 .00000012 00000+0 00000+0 0 9992 2 41745 4.4031 76.0291 0002858 172.7394 168.8547 0.99061684 28840
UTC large
Height (km)
Speed (km/s)
/
Latitude / Longitude
Inclination (degrees)
Orbital Period (minutes)
Azimuth
Elevation
Range (km)
Doppler Factor

Next 0 passes for location: London (51.5072 / 0.1276)

No passes found over London.
USA 271